Location: Gombori
(14.9797°N, 2.9419°W)
Time: 13:24:13
(UTC+00:00)

METEOR 2-17 DEB - Pass Details

Date: 03 June 2022
Orbit: 896 x 935 km, 82.5° (Epoch: 24 June)

Event Time Altitude Azimuth Distance (km) Brightness Sun altitude
Rises 20:35:57 0° 10° (N) 3,504 ? -25.6°
Reaches altitude 10° 20:38:37 10° 19° (NNE) 2,562 ? -26.2°
Enters shadow 20:42:01 29° 48° (NE) 1,590 ? -26.8°
